Regional Weather Roundup
Issued by NWS Little Rock, AR

Home | Current Version | Previous Version | Text Only | Print | Product List | Glossary On
Versions: 1 2 3 4 5 6 7 8 9 10 11 12 13 14 15 16 17 18 19 20 21 22 23 24 25 26 27 28 29 30 31 32 33 34 35 36 37 38 39 40 41 42 43 44 45 46 47 48 49 50
000
ASUS44 KLZK 241603
RWRLZK

WEATHER ROUNDUP FOR ARKANSAS
NATIONAL WEATHER SERVICE LITTLE ROCK AR
1100 AM CDT TUE MAY 24 2022

NOTE: "FAIR" INDICATES FEW OR NO CLOUDS BELOW 12,000 FEET WITH NO
SIGNIFICANT WEATHER AND/OR OBSTRUCTIONS TO VISIBILITY.

ARZ001-010-029-103-241700-
NORTHWEST ARKANSAS

CITY           SKY/WX    TMP DP  RH WIND       PRES   REMARKS
FAYETTEVILLE   CLOUDY    70  63  78 SE9       29.88F
FORT SMITH     LGT RAIN  67  62  84 E10       29.86F
HARRISON       FOG       58  57  97 E7        29.96F VSB 1/4
BENTONVILLE    CLOUDY    62  61  96 E8        29.91F
ROGERS         CLOUDY    61  59  93 E9        29.91F
SILOAM SPGS    CLOUDY    66  62  87 E10       29.88F
HIGHFILL       CLOUDY    64  60  87 E10       29.89F
SPRINGDALE     CLOUDY    63  63 100 E6        29.91F
$$

ARZ004-005-016-241700-
NORTH CENTRAL ARKANSAS

CITY           SKY/WX    TMP DP  RH WIND       PRES   REMARKS
BATESVILLE     CLOUDY    63  61  93 E9        29.98F
FLIPPIN        CLOUDY    62  58  86 E5        29.98F
MTN HOME       CLOUDY    61  58  90 E8        29.95F
$$

ARZ140-141-241700-
WEST CENTRAL ARKANSAS

CITY           SKY/WX    TMP DP  RH WIND       PRES   REMARKS
MENA           NOT AVBL
MOUNT IDA      RAIN      65  63  93 VRB5      29.87F FOG
$$

ARZ009-017-025-026-028-241700-
NORTHEAST ARKANSAS

CITY           SKY/WX    TMP DP  RH WIND       PRES   REMARKS
JONESBORO      CLOUDY    66  61  84 E14       29.99F
NEWPORT        CLOUDY    65  62  90 E10       29.99S
WALNUT RIDGE   CLOUDY    65  62  90 MISG      30.00S
BLYTHEVILLE    CLOUDY    69  62  78 E8        30.00F
$$

ARZ032-043-044-241700-
LITTLE ROCK METRO AREA

CITY           SKY/WX    TMP DP  RH WIND       PRES   REMARKS
LITTLE ROCK    CLOUDY    67  63  87 E12       29.93F FOG
N LTL ROCK NWS   N/A     65  64  97 E9        29.90F
NLR AIRPORT    FOG       64  64 100 E12       29.93S VSB 1/2
CONWAY         CLOUDY    66  66 100 E5        29.92S FOG
$$

ARZ033-042-122-123-241700-
REMAINDER OF CENTRAL ARKANSAS

CITY           SKY/WX    TMP DP  RH WIND       PRES   REMARKS
SEARCY         CLOUDY    65  63  93 E9        29.96F
HOT SPRINGS    CLOUDY    66  65  96 E12       29.91S FOG
RUSSELLVILLE   CLOUDY    64  62  93 VRB6      29.91F
CLINTON        CLOUDY    64  61  88 E5        29.95F
$$

ARZ036-241700-
EAST ARKANSAS

CITY           SKY/WX    TMP DP  RH WIND       PRES   REMARKS
WEST MEMPHIS   CLOUDY    74  65  73 E7        29.96S
$$

ARZ050-053-066-070-073-241700-
SOUTHWEST ARKANSAS

CITY           SKY/WX    TMP DP  RH WIND       PRES   REMARKS
CAMDEN         CLOUDY    72  72 100 E5        29.90F FOG
TEXARKANA      CLOUDY    70  68  93 SE9       29.87F FOG
EL DORADO      CLOUDY    72  69  90 SE10      29.89F
DE QUEEN       CLOUDY    69  65  86 E7        29.84F
$$

ARZ056-057-069-241700-
SOUTHEAST ARKANSAS

CITY           SKY/WX    TMP DP  RH WIND       PRES   REMARKS
PINE BLUFF     CLOUDY    72  68  87 E9        29.93R
STUTTGART      CLOUDY    70  66  87 E9        29.94S
MONTICELLO     CLOUDY    71  68  90 SE5       29.93R

$$





USA.gov is the U.S. government's official web portal to all federal, state and local government web resources and services.